Regional Weather Roundup
Issued by NWS

Home | Current Version | Previous Version | Text Only | Print | Product List | Glossary Off
Versions: 1 2 3 4 5 6 7 8 9 10 11 12 13 14 15 16 17 18 19 20 21 22 23 24 25 26 27 28 29 30 31 32 33 34 35 36 37 38 39 40 41 42 43 44 45 46 47 48 49 50

182
ASUS43 KDMX 231708
RWRIA

WEATHER ROUNDUP FOR IOWA
NATIONAL WEATHER SERVICE DES MOINES IA
1200 PM CDT SAT JUL 23 2016

NOTE: "FAIR" INDICATES FEW OR NO CLOUDS BELOW 12,000 FEET WITH NO
SIGNIFICANT WEATHER AND/OR OBSTRUCTIONS TO VISIBILITY.

* - THESE STATIONS ARE NOT NWS STATIONS...THUS NOT UNDER NWS
QUALITY CONTROL.  THEY ALSO DO NOT REPORT WEATHER SUCH
AS PRECIPITATION OR FOG.

IAZ001>003-012>014-020>022-031>034-043>046-231800-
   NORTHWEST IOWA

CITY           SKY/WX    TMP DP  RH WIND       PRES   REMARKS
CARROLL *      CLOUDY    81  75  83 SE8       29.86F HX  86
CHEROKEE *     PTSUNNY   83  76  81 S12       29.83S HX  91
DENISON *      CLOUDY    79  75  89 SE8       29.83F HX  82
LE MARS *      CLOUDY    84  77  79 SE9G15    29.82S HX  94
SHELDON *      CLOUDY    81  77  89 S10       29.81S HX  88
SIOUX CITY     MOSUNNY   87  76  69 SE9       29.80S HX  97
SPENCER        CLOUDY    79  74  84 SE12      29.83S HX  82
STORM LAKE *   CLOUDY    79  75  89 SE12G17   29.85S HX  82
$$

IAZ055>058-069>071-079>083-090>094-231800-
   SOUTHWEST IOWA

CITY           SKY/WX    TMP DP  RH WIND       PRES   REMARKS
ATLANTIC *     CLOUDY    81  75  83 CALM      29.86S HX  86
CLARINDA *       N/A     82  77  83 MISG      29.87F HX  91
COUNCIL BLFS * CLOUDY    82  73  74 S7        29.85R HX  88
CRESTON *      CLOUDY    84  77  79 S13       29.91R HX  94
HARLAN  *      CLOUDY    81  75  83 VRB3      29.90R HX  86
LAMONI         MOSUNNY   87  76  69 S12       29.90S HX  97
RED OAK *      CLOUDY    82  75  78 S9        29.85S HX  89
SHENANDOAH *   CLOUDY    82  77  83 S9        29.85S HX  91
$$

IAZ047>049-059>061-072>074-084-231800-
   CENTRAL IOWA

CITY           SKY/WX    TMP DP  RH WIND       PRES   REMARKS
AMES           CLOUDY    85  79  82 S5        29.89R HX  98
ANKENY *         N/A    N/A N/A N/A MISG        N/A
BOONE *        PTSUNNY   86  77  74 SW3       29.89R HX  97
CHARITON *       N/A    N/A N/A N/A MISG        N/A
DES MOINES     PTSUNNY   88  77  69 S12       29.86S HX 100
GRINNELL*      CLOUDY    87  77  71 S9        29.91F HX  99
KNOXVILLE *    SUNNY     90  77  66 S10G17    29.88S HX 102
MARSHALLTOWN   CLOUDY    87  79  76 SE14      29.88F HX 101
NEWTON *       PTSUNNY   86  81  84 S7        29.89S HX 102
PELLA *        MOSUNNY   91  76  60 S9        29.90S HX 103
PERRY *          N/A     86  80  80 W5        29.89R HX 100
$$

IAZ004>006-015-016-023>025-035-036-231800-
   NORTH CENTRAL IOWA

CITY           SKY/WX    TMP DP  RH WIND       PRES   REMARKS
ALGONA *       CLOUDY    77  75  94 SE9G15    29.88F
ESTHERVILLE    CLOUDY    73  72  96 SE16G22   29.83F
FORT DODGE *   CLOUDY    81  79  94 E9        29.89F HX  89
MASON CITY     LGT RAIN  77  75  93 CALM      29.95R FOG
FOREST CITY *  HVY RAIN  75  75 100 CALM      29.94S
IOWA FALLS *   PTSUNNY   85  78  79 SE6       29.92R HX  96
$$

IAZ007>011-017>019-026>030-037>042-050>054-066-231800-
   NORTHEAST IOWA

CITY           SKY/WX    TMP DP  RH WIND       PRES   REMARKS
CEDAR RAPIDS   CLOUDY    86  81  85 S10       29.92F HX 102
CHARLES CITY * CLOUDY    75  75 100 SE14      29.92R
CLINTON *      CLOUDY    84  79  85 S8        29.98F HX  96
DECORAH *      LGT RAIN  72  72 100 SE10G16   29.96F
DUBUQUE        CLOUDY    79  77  94 CALM      30.00R HX  83
MONTICELLO *   CLOUDY    81  79  94 SE10      29.96S HX  89
OELWEIN *      CLOUDY    77  77 100 E8        29.96F FOG
WATERLOO       CLOUDY    82  77  84 E13       29.90F HX  90
$$

IAZ064-065-067-068-078-231800-
   EAST CENTRAL IOWA

CITY           SKY/WX    TMP DP  RH WIND       PRES   REMARKS
DAVENPORT      CLOUDY    86  78  77 VRB6      29.97F HX  98
IOWA CITY      CLOUDY    87  81  82 SE10      29.95F HX 104
MT. PLEASANT * MOSUNNY   91  82  72 S6        29.95F HX 112
MUSCATINE *    CLOUDY    88  79  74 SE9       29.94F HX 102
QUAD CITIES    CLOUDY    88  78  72 SE8       29.96S HX 101
$$

IAZ062-063-075>077-085>089-095>099-231800-
   SOUTHEAST IOWA

CITY           SKY/WX    TMP DP  RH WIND       PRES   REMARKS
BURLINGTON     CLOUDY    87  80  79 SE7       29.96S HX 103
FAIRFIELD *    MOSUNNY   90  77  66 S9G15     29.94S HX 102
KEOKUK *       PTSUNNY   88  81  79 S6        29.95F HX 105
CENTERVILLE *    N/A     91  75  59 S8        29.94S HX 102
OTTUMWA        MOSUNNY   90  77  65 S8        29.92S HX 103
WASHINGTON *   MOSUNNY   90  82  79 SE7       29.95F HX 111
$$

ABBREVIATIONS USED IN REMARKS
   TC - TEMPERATURES IN CELSIUS
  WCI - WIND CHILL INDEX
   HX - HEAT INDEX
  VSB - VISIBILITY
$$





USA.gov is the U.S. government's official web portal to all federal, state and local government web resources and services.